Location: Chassagnes
(44.4047°N, 4.1657°E)
Time: 12:26:38
(UTC+00:00)

Lacrosse 5 - Pass Details

Date: 27 October 2020
Orbit: 716 x 723 km, 57.0° (Epoch: 06 November)

Event Time Altitude Azimuth Distance (km) Brightness Sun altitude
Rises 18:15:00 0° 299° (WNW) 3,123 6.2 -17.6°
Reaches altitude 10° 18:18:01 10° 317° (NW) 2,203 4.9 -18.2°
Maximum altitude 18:21:40 20° 4° (N) 1,651 3.7 -18.8°
Enters shadow 18:23:30 16° 31° (NNE) 1,806 3.6 -19.2°
